Back to catalog

STARLINK-31236

AliveCommunicationsVLEO
NORAD 58841·PAYLOAD·🇺🇸 United States

Launched Jan 24, 2024 from Vandenberg Space Force Base

Loading…

Next Passes (next 24 hours)

TLE

FreshSource: CelesTrak SupGP

Epoch: Sep 14, 2026, 15:01 UTC

1 58841C 24017R   26257.62618056 -.00076121  00000+0 -22491-2 0  2571
2 58841  53.1601  45.0962 0000695  90.1079   3.0492 15.34428214    19

Track STARLINK-31236 in real time with AllMySat

Download on the App Store